Weather History for KDGW - October, 2012

Change the Weather History Date:

Monday, October 1, 2012

  Actual Average Record
Temperature  
Mean Temperature 55 °F 51 °F  
Max Temperature 70 °F 67 °F 89 °F (2011)
Min Temperature 39 °F 35 °F 28 °F (2003)
Degree Days  
Heating Degree Days 10 14  
Month to date heating degree days 10 14  
Since 1 July heating degree days 138 283  
Cooling Degree Days 0 0  
Month to date cooling degree days 0 0  
Year to date cooling degree days 831 486  
Growing Degree Days 5 (Base 50)    
Moisture  
Dew Point 35 °F    
Average Humidity 49    
Maximum Humidity 73    
Minimum Humidity 25    
Precipitation  
Precipitation 0.01 in 0.05 in 0.22 in (2014)
Month to date precipitation 0.01 0.05  
Year to date precipitation 4.26 11.33  
Sea Level Pressure  
Sea Level Pressure 30.16 in    
Wind  
Wind Speed 7 mph (NW)    
Max Wind Speed 14 mph    
Max Gust Speed 21 mph    
Visibility 10 miles    
Events Rain    
T = Trace of Precipitation, MM = Missing Value Source: NWS Daily Summary

Daily Weather History Graph

Daily Weather History Graph

Search for Another Location

Airport or City:

Trip Planner

Search our weather history database for the weather conditions in past years. The results will help you decide how hot, cold, wet, or windy it might be!

Date:

Astronomy

Oct. 01, 2012 Rise Set
Actual Time 6:59 AM MDT 6:41 PM MDT
Civil Twilight 6:31 AM MDT 7:10 PM MDT
Nautical Twilight 5:58 AM MDT 7:42 PM MDT
Astronomical Twilight 5:25 AM MDT 8:15 PM MDT
Moon 7:16 PM MDT (10/1) 8:34 AM MDT (10/1)
Length of Visible Light 12h 38m
Length of Day
11h 42m
Full, 97% of the Moon is Illuminated
Oct 1
Full
Oct 8
Last Quarter
Oct 15
New
Oct 21
First Quarter
Oct 29
Full

Hourly Weather History & Observations

Time (MDT) Temp. Windchill Dew Point Humidity Pressure Visibility Wind Dir Wind Speed Gust Speed Precip Events Conditions
12:53 AM 57.9 °F - 37.0 °F 46% 30.16 in 10.0 mi North 6.9 mph - 0.00 in Rain Light Rain
1:53 AM 55.0 °F - 39.9 °F 57% 30.19 in 10.0 mi NW 10.4 mph - 0.01 in   Overcast
2:53 AM 52.0 °F - 37.0 °F 57% 30.19 in 10.0 mi NNW 9.2 mph - N/A   Scattered Clouds
3:53 AM 46.0 °F 41.9 °F 36.0 °F 68% 30.22 in 10.0 mi WNW 8.1 mph - N/A   Partly Cloudy
4:53 AM 46.9 °F - 36.0 °F 66% 30.23 in 10.0 mi NNW 9.2 mph - N/A   Clear
5:53 AM 45.0 °F 42.6 °F 34.0 °F 65% 30.26 in 10.0 mi NW 4.6 mph - N/A   Clear
6:53 AM 41.0 °F 37.1 °F 34.0 °F 76% 30.29 in 10.0 mi WNW 5.8 mph - N/A   Clear
7:53 AM 45.0 °F 41.8 °F 36.0 °F 71% 30.30 in 10.0 mi NNW 5.8 mph - N/A   Clear
8:53 AM 51.1 °F - 37.9 °F 61% 30.29 in 10.0 mi NW 6.9 mph - N/A   Clear
9:53 AM 55.0 °F - 39.0 °F 55% 30.29 in 10.0 mi NW 6.9 mph - N/A   Clear
11:53 AM 61.0 °F - 36.0 °F 39% 30.23 in 10.0 mi NW 8.1 mph - N/A   Clear
12:53 PM 63.0 °F - 34.0 °F 34% 30.19 in 10.0 mi NNW 5.8 mph - N/A   Clear
1:53 PM 64.9 °F - 33.1 °F 31% 30.16 in 10.0 mi West 8.1 mph - N/A   Clear
2:53 PM 68.0 °F - 32.0 °F 26% 30.13 in 10.0 mi West 6.9 mph - N/A   Clear
4:53 PM 69.1 °F - 32.0 °F 25% 30.08 in 10.0 mi West 10.4 mph - N/A   Clear
5:53 PM 68.0 °F - 32.0 °F 26% 30.06 in 10.0 mi Calm Calm - N/A   Clear
6:53 PM 59.0 °F - 30.9 °F 35% 30.08 in 10.0 mi SSE 3.5 mph - N/A   Clear
7:53 PM 54.0 °F - 33.1 °F 45% 30.07 in 10.0 mi SSE 6.9 mph - N/A   Clear
8:53 PM 53.1 °F - 33.1 °F 47% 30.05 in 10.0 mi SSE 8.1 mph - N/A   Clear
10:53 PM 52.0 °F - 33.1 °F 49% 29.99 in 10.0 mi SE 9.2 mph - N/A   Clear
11:53 PM 50.0 °F - 32.0 °F 50% 29.96 in 10.0 mi SE 8.1 mph - N/A   Clear